Greensboro, NC

8:35 AM EST on January 23, 2017 (GMT -0500)
Piedmont Triad International

Weather History for KGSO - September, 2014

Change the Weather History Date:

Tuesday, September 30, 2014

  Actual Average Record
Temperature  
Mean Temperature 70 °F 65 °F  
Max Temperature 81 °F 75 °F 89 °F (1954)
Min Temperature 58 °F 55 °F 37 °F (1942)
Degree Days  
Heating Degree Days 0 3  
Month to date heating degree days 17 29  
Since 1 July heating degree days 17 31  
Cooling Degree Days 5 3  
Month to date cooling degree days 199 185  
Year to date cooling degree days 1452 1447  
Growing Degree Days 19 (Base 50)    
Moisture  
Dew Point 61 °F    
Average Humidity 73    
Maximum Humidity 100    
Minimum Humidity 45    
Precipitation  
Precipitation 0.00 in 0.12 in 4.48 in (1936)
Month to date precipitation 2.93 4.19  
Year to date precipitation 28.81 32.98  
Sea Level Pressure  
Sea Level Pressure 29.92 in    
Wind  
Wind Speed 3 mph (West)    
Max Wind Speed 9 mph    
Max Gust Speed 13 mph    
Visibility 4 miles    
Events Fog    
T = Trace of Precipitation, MM = Missing Value Source: NWS Daily Summary

Daily Weather History Graph

Daily Weather History Graph

Search for Another Location

Airport or City:

Trip Planner

Search our weather history database for the weather conditions in past years. The results will help you decide how hot, cold, wet, or windy it might be!

Date:

Astronomy

Sep. 30, 2014 Rise Set
Actual Time 7:14 AM EDT 7:04 PM EDT
Civil Twilight 6:48 AM EDT 7:30 PM EDT
Nautical Twilight 6:18 AM EDT 8:00 PM EDT
Astronomical Twilight 5:48 AM EDT 8:30 PM EDT
Moon 1:12 PM EDT (9/30) 11:41 PM EDT (9/30)
Length of Visible Light 12h 41m
Length of Day
11h 50m
Waxing Crescent, 38% of the Moon is Illuminated
Sep 30
Waxing Crescent
Oct 1
First Quarter
Oct 8
Full
Oct 15
Last Quarter
Oct 23
New

Hourly Weather History & Observations

Time (EDT) Temp. Heat Index Dew Point Humidity Pressure Visibility Wind Dir Wind Speed Gust Speed Precip Events Conditions
12:24 AM 60.8 °F - 60.8 °F 100% 29.97 in 1.8 mi Calm Calm - N/A   Scattered Clouds
12:27 AM 60.8 °F - 60.8 °F 100% 29.97 in 0.8 mi Calm Calm - N/A   Scattered Clouds
12:54 AM 59.0 °F - 59.0 °F 100% 29.95 in 0.2 mi Calm Calm - N/A Fog Fog
1:50 AM 60.8 °F - 60.8 °F 100% 29.96 in 0.1 mi WSW 4.6 mph - N/A Fog Fog
1:54 AM 61.0 °F - 61.0 °F 100% 29.94 in 0.1 mi WSW 5.8 mph - N/A Fog Fog
2:38 AM 60.8 °F - 60.8 °F 100% 29.95 in 0.1 mi West 4.6 mph - N/A Fog Fog
2:54 AM 61.0 °F - 61.0 °F 100% 29.93 in 0.1 mi WSW 3.5 mph - N/A Fog Fog
3:54 AM 61.0 °F - 61.0 °F 100% 29.91 in 0.5 mi West 3.5 mph - N/A Fog Fog
4:04 AM 60.8 °F - 60.8 °F 100% 29.93 in 1.0 mi West 3.5 mph - N/A   Overcast
4:54 AM 60.1 °F - 60.1 °F 100% 29.91 in 0.2 mi Calm Calm - N/A Fog Fog
5:54 AM 59.0 °F - 59.0 °F 100% 29.91 in 1.2 mi SSW 3.5 mph - N/A   Scattered Clouds
5:57 AM 60.8 °F - 60.8 °F 100% 29.92 in 2.0 mi Calm Calm - N/A   Partly Cloudy
6:10 AM 59.0 °F - 59.0 °F 100% 29.93 in 0.8 mi SSW 3.5 mph - N/A   Mist
6:54 AM 61.0 °F - 61.0 °F 100% 29.91 in 0.2 mi Calm Calm - N/A Fog Fog
7:23 AM 60.8 °F - 60.8 °F 100% 29.93 in 0.1 mi Calm Calm - N/A Fog Fog
7:54 AM 61.0 °F - 61.0 °F 100% 29.92 in 0.1 mi West 3.5 mph - N/A Fog Fog
8:06 AM 62.6 °F - 62.6 °F 100% 29.94 in 0.2 mi NW 3.5 mph - N/A Fog Fog
8:35 AM 62.6 °F - 62.6 °F 100% 29.95 in 1.0 mi NW 3.5 mph - N/A   Overcast
8:54 AM 62.1 °F - 62.1 °F 100% 29.93 in 1.0 mi Calm Calm - N/A   Overcast
9:40 AM 62.6 °F - 62.6 °F 100% 29.95 in 1.5 mi NNW 3.5 mph - N/A   Overcast
9:54 AM 62.1 °F - 62.1 °F 100% 29.94 in 1.5 mi NNW 3.5 mph - N/A   Overcast
10:40 AM 62.6 °F - 62.6 °F 100% 29.95 in 3.0 mi Calm Calm - N/A   Overcast
10:54 AM 64.0 °F - 63.0 °F 96% 29.94 in 4.0 mi Calm Calm - N/A   Overcast
11:14 AM 66.2 °F - 62.6 °F 88% 29.95 in 6.0 mi Calm Calm - N/A   Mostly Cloudy
11:54 AM 69.1 °F - 64.0 °F 84% 29.93 in 8.0 mi Calm Calm - N/A   Mostly Cloudy
12:11 PM 71.6 °F - 64.4 °F 78% 29.94 in 10.0 mi Calm Calm - N/A   Partly Cloudy
12:54 PM 73.9 °F - 64.9 °F 73% 29.90 in 10.0 mi Calm Calm - N/A   Partly Cloudy
1:54 PM 78.1 °F - 64.0 °F 62% 29.87 in 10.0 mi Variable 4.6 mph - N/A   Partly Cloudy
2:54 PM 78.1 °F - 62.1 °F 58% 29.86 in 10.0 mi NNE 3.5 mph - N/A   Scattered Clouds
3:54 PM 78.1 °F - 57.9 °F 50% 29.85 in 10.0 mi NE 6.9 mph - N/A   Scattered Clouds
4:54 PM 80.1 °F 80.6 °F 57.9 °F 47% 29.84 in 10.0 mi Variable 3.5 mph - N/A   Scattered Clouds
5:54 PM 78.1 °F - 57.9 °F 50% 29.85 in 10.0 mi Calm Calm - N/A   Scattered Clouds
6:54 PM 75.0 °F - 59.0 °F 57% 29.86 in 10.0 mi ESE 3.5 mph - N/A   Partly Cloudy
7:54 PM 72.0 °F - 60.1 °F 66% 29.87 in 10.0 mi SE 4.6 mph - N/A   Partly Cloudy
8:54 PM 69.1 °F - 61.0 °F 75% 29.89 in 10.0 mi South 3.5 mph - N/A   Partly Cloudy
9:54 PM 63.0 °F - 62.1 °F 97% 29.98 in 8.0 mi Calm Calm - N/A   Mostly Cloudy
10:54 PM 66.9 °F - 63.0 °F 87% 29.91 in 10.0 mi Calm Calm - N/A   Scattered Clouds
11:54 PM 64.0 °F - 62.1 °F 93% 29.91 in 9.0 mi Calm Calm - N/A   Clear